SCP
0 0 0 0 0 0 0 0 0 0 0 0 0 0 0 0 0 0 0 0 0 0 0 0 0 0 0 0 0 0 0 0 0 0 0 0 0 0 0 0 0 0 0 0
0 0 0 0 0 0 0 0 -0 0 0 0 0 0 0 0 0 0 0 0 0 0 0 0 0 0 0 0 0 0 0 0 0 0 0 0 0 0 0 0 0 0 0 0
0 0 0 0 0 0 0 0 0 -0 0 0 0 0 0 0 0 0 0 0 0 0 0 0 0 0 0 0 0 0 0 0 0 0 0 0 0 0 0 0 0 0 0 0
0 0 0 0 0 0 0 0 0 -0 -0 0 0 0 0 0 0 0 0 0 0 0 0 0 0 0 0 0 0 0 0 0 0 0 0 0 0 0 0 0 0 0 0 0
0 0 0 0 0 0 0 0 0 0 -0 -0 -0 0 0 0 0 0 0 0 0 0 0 0 0 0 0 0 0 0 0 0 0 0 0 0 0 0 0 0 0 0 0 0
0 0 0 0 0 0 0 0 0 0 0 -0 -0 0 0 0 0 0 0 0 0 0 0 0 0 0 0 0 0 0 0 0 0 0 0 0 0 0 0 0 0 0 0 0
0 0 0 0 0 0 0 0 0 0 -0 -0 -0 0 0 0 0 0 0 0 0 0 0 0 0 0 0 0 0 0 0 0 0 0 0 0 0 0 0 0 0 0 0 0
0 0 0 0 0 0 0 0 0 -0 -0 -0 0 -0 0 0 0 0 0 0 0 0 0 0 0 0 0 0 0 0 0 0 0 0 0 0 0 0 0 0 0 0 0 0
0 0 0 0 0 0 0 0 0 0 0 0 0 0 0 0 0 0 0 0 0 0 0 0 0 0 0 0 0 0 0 0 0 0 0 0 0 0 0 0 0 0 0 0
0 0 0 -0 0 0 0 0 0 0 0 0 0 0 0 0 0 0 0 0 0 0 0 0 0 0 0 0 0 0 0 0 0 0 0 0 0 0 0 0 0 0 0 0
0 0 0 0 0 0 0 0 0 0 0 0 0 0 0 0 -0 0 0 0 0 0 0 0 0 0 0 0 0 0 0 0 0 0 0 0 0 0 0 0 0 0 0 0
-0 0 0 0 0 0 0 0 0 0 0 0 0 0 -0 0 0 0 0 0 0 0 0 0 0 0 0 0 0 0 0 0 0 0 0 0 0 0 0 0 0 0 0 0
-0 0 0 0 0 0 0 0 0 0 0 0 0 0 0 0 0 0 0 0 -0 -0 0 0 -0 0 0 0 0 0 0 0 0 0 0 0 0 0 0 0 0 0 0 0
-0 0 0 0 0 0 0 0 0 0 0 0 0 0 0 0 0 0 0 0 0 0 0 0 0 0 0 0 0 0 0 0 0 0 0 0 0 0 0 0 0 0 0 0
0 0 0 -0 -0 0 0 0 0 0 0 0 0 0 0 0 0 0 0 0 -0 -0 0 0 0 0 0 0 0 0 0 0 0 0 0 0 0 0 0 0 0 0 0 0
-0 0 0 0 0 0 0 -0 0 0 0 0 0 0 -0 0 0 0 0 0 -0 -0 -0 -0 -0 -0 -0 -0 -0 -0 0 0 0 0 0 0 0 0 0 0 0 0 0 0
-0 0 -0 0 0 0 0 0 0 0 0 0 0 0 0 0 0 0 0 0 -0 -0 -0 -0 -0 -0 -0 0 0 0 0 0 0 0 0 0 0 0 0 0 0 0 0 0
-0 -0 -0 0 0 0 0 0 0 0 0 0 0 0 0 0 0 0 0 0 0 0 0 0 0 0 0 0 0 0 0 0 0 0 0 0 0 0 0 0 0 0 0 0
0 0 -0 0 -0 0 0 0 0 0 0 0 0 0 0 0 0 0 0 0 0 0 0 0 0 0 0 0 0 0 0 0 0 0 0 0 0 0 0 0 0 0 0 0
0 0 0 -0 0 0 0 0 0 0 0 0 0 0 0 0 0 0 0 0 0 0 0 0 0 0 0 0 0 0 0 0 0 0 0 0 0 0 0 0 0 0 0 0
0 0 -0 -0 -0 -0 0 0 0 0 0 0 0 0 0 0 0 0 0 0 0 0 0 0 0 0 0 0 0 0 0 0 0 0 0 0 0 0 0 0 0 0 0 0
0 0 -0 0 0 -0 -0 0 0 0 0 0 0 0 0 0 0 0 0 0 0 0 0 0 0 0 0 0 0 0 0 0 0 0 0 0 0 0 0 0 0 0 0 0
0 0 0 -0 -0 0 0 0 0 0 0 0 0 0 0 0 0 0 0 0 0 0 0 0 0 0 0 0 0 0 0 0 0 0 0 0 0 0 0 0 0 0 0 0
0 0 0 0 -0 -0 0 0 0 0 0 0 0 0 0 0 0 0 0 0 0 0 0 0 0 0 0 0 0 0 0 0 0 0 0 0 0 0 0 0 0 0 0 0
0 -0 -0 0 -0 0 0 0 0 0 0 0 0 0 0 0 0 0 0 0 0 0 0 0 0 0 0 0 0 0 0 0 0 0 0 0 0 0 0 0 0 0 0 0
-0 0 0 -0 -0 0 0 0 0 0 0 0 0 0 0 0 -0 -0 0 0 0 0 0 0 0 0 0 0 0 0 0 0 0 0 0 0 0 0 0 0 0 0 0 0
Wind_Speed_500mb
36 13 18 30 24 13 13 8 12 13 27 34 33 21 31 38 41 43 42 41 43 46 45 43 44 43 44 42 41 42 41 40 35 34 35 28 28 25 22 13 6 4 4 7
22 25 26 20 28 23 21 8 9 3 13 19 27 20 29 32 33 47 51 47 49 47 41 41 39 37 41 36 39 45 46 41 42 38 37 38 31 28 19 10 9 9 8 3
28 24 27 25 22 26 27 26 12 7 5 6 19 10 30 21 26 35 41 47 49 53 46 41 39 39 36 37 39 47 52 51 49 47 47 40 28 21 17 16 14 11 5 2
22 22 32 31 24 25 23 25 19 11 4 3 12 9 23 23 23 23 33 42 55 47 40 39 41 40 37 37 37 41 47 48 50 47 41 34 27 19 21 19 15 8 2 3
14 17 21 27 25 23 18 16 31 11 11 4 9 6 9 28 22 31 40 42 45 53 41 42 41 39 39 37 35 37 38 43 46 47 38 26 21 21 20 16 10 6 1 5
26 37 10 14 14 22 6 19 21 20 7 7 16 7 6 21 33 26 33 52 54 55 54 49 42 42 45 44 37 35 36 42 44 36 31 22 20 20 18 14 10 5 1 5
17 27 16 8 13 5 7 4 5 7 6 5 27 18 12 5 13 34 40 55 60 64 60 56 47 49 48 43 45 36 29 36 35 31 30 27 25 22 16 13 6 3 2 5
11 12 24 19 21 8 13 11 3 9 11 10 15 14 8 5 23 31 60 55 60 60 59 58 59 56 53 54 48 39 30 27 30 32 30 26 21 20 13 8 5 5 2 6
8 11 4 14 14 15 5 17 3 2 3 5 3 5 9 12 4 8 43 54 55 56 60 61 55 49 53 50 48 42 50 47 41 32 29 25 24 14 12 11 8 6 3 6
11 18 12 13 17 14 6 4 5 5 3 4 5 5 7 13 18 20 27 45 50 54 58 60 54 57 56 62 57 53 51 51 41 29 27 23 20 17 14 11 7 5 4 8
20 12 9 6 10 12 5 6 8 6 7 4 5 6 7 9 33 40 35 53 66 66 59 57 63 52 58 49 60 63 58 49 38 35 30 28 20 17 15 11 7 5 7 9
12 3 6 12 7 6 3 12 12 5 6 4 4 3 8 10 8 20 41 44 46 62 69 74 66 64 58 56 56 57 48 45 41 38 32 25 21 18 15 11 8 8 9 11
10 6 5 12 5 1 11 9 8 14 7 7 7 4 4 6 7 26 43 50 51 47 43 48 51 58 62 63 63 52 47 44 40 35 29 24 21 18 15 11 11 11 12 14
19 4 5 5 3 7 9 11 15 11 3 2 3 5 5 7 6 20 37 48 56 64 69 68 67 68 65 62 63 56 49 44 39 32 27 23 19 17 14 14 14 13 15 17
10 6 8 5 9 9 3 16 16 15 7 4 6 3 9 9 14 18 36 49 56 58 62 63 65 64 67 68 57 52 50 42 35 30 26 23 19 16 16 16 16 17 18 21
14 5 4 8 13 10 5 9 15 12 11 12 15 9 9 8 25 28 37 46 50 56 62 66 68 72 74 68 65 58 47 40 35 29 26 20 18 18 19 19 20 21 21 23
9 10 7 2 4 5 13 16 20 10 12 13 17 9 10 9 14 32 42 50 54 58 65 66 68 74 74 72 63 52 44 39 31 30 23 21 20 18 21 23 23 23 23 25
7 8 4 6 1 6 10 2 3 12 11 17 7 13 9 8 15 24 36 46 51 55 59 62 66 71 72 65 54 48 44 36 34 29 26 23 19 20 23 24 24 24 25 28
13 6 6 2 5 10 1 3 3 2 7 13 7 12 8 7 4 7 25 30 32 42 50 59 65 68 68 62 58 50 45 43 40 31 25 19 20 23 25 24 25 27 29 32
8 6 3 3 5 5 2 1 5 5 6 18 16 12 14 15 4 5 12 27 32 35 44 56 58 61 65 67 63 52 51 46 34 29 20 22 24 25 26 28 29 30 32 36
2 4 8 8 6 11 3 2 3 6 7 24 17 20 27 7 6 7 5 22 29 34 41 45 51 58 63 65 61 54 49 41 28 26 26 26 28 28 30 34 36 35 36 38
7 8 6 2 2 9 8 3 4 4 9 14 8 7 16 10 5 4 4 18 31 36 41 44 47 55 58 58 55 50 45 32 29 30 31 30 33 36 38 37 35 36 40 42
5 9 4 10 8 3 15 11 7 6 5 8 4 5 8 13 1 1 9 20 28 32 37 37 39 45 49 52 52 47 37 32 32 33 34 39 38 38 36 37 38 42 46 49
9 7 6 7 7 12 26 35 32 25 15 11 8 6 10 7 11 3 10 22 27 32 36 39 42 44 46 47 44 40 35 33 35 37 38 37 37 39 41 42 44 48 51 53
8 12 8 11 21 43 34 35 26 25 25 18 8 5 13 15 13 6 9 18 23 30 35 38 39 40 41 40 39 34 30 31 34 36 37 38 40 43 44 45 48 51 54 56
21 14 10 12 20 10 7 11 8 29 21 17 14 7 10 14 12 8 16 20 26 31 34 36 36 35 35 34 32 30 27 28 32 34 36 38 42 45 46 49 52 55 58 59
Wind_Direction_500mb
240 234 228 229 233 241 204 164 253 316 332 341 200 169 167 180 176 167 168 167 167 172 175 177 180 181 187 193 191 193 195 201 204 204 202 198 164 169 169 166 179 198 161 143
254 246 251 255 226 219 226 152 217 246 6 347 281 200 171 179 189 178 170 169 163 176 175 179 182 184 190 195 199 197 202 202 204 202 198 184 180 175 167 165 176 157 146 121
244 254 293 223 216 230 235 217 202 160 356 233 318 268 162 185 176 179 181 172 171 179 175 177 178 189 189 196 194 196 195 199 196 194 186 172 174 169 169 167 159 156 155 358
249 259 254 284 229 215 262 212 158 149 86 230 68 318 237 175 184 180 182 171 162 168 178 183 182 188 187 183 185 190 191 189 186 189 171 163 171 182 167 159 161 168 191 343
274 242 253 226 242 219 239 278 202 146 141 140 137 250 266 175 199 187 177 169 160 155 181 180 183 182 175 176 178 179 187 181 175 181 171 170 164 165 158 164 177 186 196 358
259 278 300 289 241 227 166 214 172 158 150 215 158 168 262 191 221 190 178 166 166 162 183 180 177 175 169 163 169 173 180 186 170 170 167 160 161 160 177 187 194 206 0 348
301 247 218 278 255 264 167 254 199 188 183 227 156 156 262 242 289 189 182 166 166 185 185 170 177 173 167 162 169 165 173 168 159 159 163 165 169 180 185 194 203 237 288 355
287 306 212 193 225 187 213 215 282 190 177 152 164 180 196 313 304 246 177 168 158 177 179 171 175 180 165 168 172 169 187 204 164 171 166 175 184 193 182 196 217 236 303 351
279 252 94 264 236 195 187 208 357 135 235 67 152 217 246 125 299 162 155 154 160 174 181 182 185 179 168 172 170 176 181 180 172 168 185 186 187 181 199 203 196 237 311 338
284 295 248 183 302 259 234 346 279 322 42 104 238 222 166 174 174 164 161 164 161 165 178 183 182 175 166 180 169 173 170 169 177 187 199 188 187 193 196 200 196 243 316 329
287 246 292 116 214 201 184 265 228 141 263 177 156 236 5 195 184 185 182 174 169 177 173 179 172 178 185 186 174 176 175 174 182 194 188 192 188 190 198 202 217 259 299 313
252 318 272 243 323 5 278 236 203 164 246 338 82 324 1 1 359 164 171 176 176 179 175 184 187 190 187 182 179 178 181 186 186 185 189 186 187 195 206 214 236 271 294 319
330 202 330 327 344 90 254 224 257 255 340 200 126 257 2 35 40 137 146 161 163 173 165 166 181 189 188 184 184 186 189 185 183 186 186 187 194 205 216 234 255 283 305 315
323 322 188 245 46 326 309 242 221 210 199 286 257 74 163 119 147 131 147 153 159 170 178 188 194 193 191 186 187 191 186 185 186 186 190 196 206 216 232 251 269 288 303 312
9 291 351 354 288 289 179 307 312 231 239 214 315 289 67 147 166 164 155 156 160 166 173 183 191 190 187 189 187 187 190 187 187 190 198 206 216 231 249 263 278 289 297 300
343 329 317 247 239 271 276 214 269 297 243 245 283 318 130 99 137 150 159 159 166 173 177 184 196 193 192 190 190 191 189 188 192 199 207 213 230 244 259 271 277 282 288 297
323 328 325 60 326 253 296 230 208 198 242 196 222 222 148 145 158 170 173 181 183 184 187 193 200 198 194 193 192 191 190 193 198 207 214 225 239 256 267 271 275 282 291 305
301 301 292 295 43 224 244 341 288 254 219 220 210 189 150 137 167 190 201 195 197 198 199 201 202 201 199 195 190 192 196 200 208 212 222 234 252 264 268 272 279 285 294 302
207 286 296 310 276 284 313 291 343 203 271 248 173 140 124 138 130 238 209 214 212 207 208 205 207 203 198 194 191 197 202 208 213 217 229 244 263 269 274 283 286 290 291 296
222 260 271 288 261 263 290 32 319 301 311 353 190 155 157 152 120 249 213 211 208 207 207 204 207 204 198 194 196 205 208 212 217 226 237 256 273 281 284 282 282 279 284 289
224 220 236 252 261 288 88 44 337 93 266 328 353 183 167 173 176 162 225 203 206 204 202 207 208 201 198 200 203 206 212 219 222 230 247 265 280 282 283 282 277 273 278 286
196 165 214 18 321 304 163 145 207 260 326 324 320 49 161 121 143 231 218 194 195 196 195 201 203 201 201 204 206 211 219 221 229 243 256 272 283 279 274 270 270 277 284 292
299 197 230 182 225 196 197 215 228 286 330 341 340 258 197 212 138 161 194 192 193 195 194 193 194 196 199 202 209 216 222 228 240 253 266 271 270 273 277 282 281 284 287 289
247 186 222 26 272 244 248 250 252 257 262 293 329 277 211 213 230 285 183 183 187 186 188 187 187 194 199 202 210 218 225 234 246 257 267 274 278 285 284 279 280 283 287 291
221 141 213 263 282 284 278 253 249 241 239 249 296 313 205 201 205 243 202 188 185 180 180 185 189 193 197 204 209 217 227 242 258 268 274 276 280 283 282 280 283 286 290 293
187 201 178 225 237 231 302 339 260 239 241 245 253 305 202 199 191 196 184 180 179 179 183 185 187 192 195 201 207 215 231 254 269 276 278 280 280 281 281 282 285 289 292 295
Wind_Speed_850mb
36 13 18 30 24 13 13 8 12 13 27 34 33 21 31 38 41 43 42 41 43 46 45 43 44 43 44 42 41 42 41 40 35 34 35 28 28 25 22 13 6 4 4 7
22 25 26 20 28 23 21 8 9 3 13 19 27 20 29 32 33 47 51 47 49 47 41 41 39 37 41 36 39 45 46 41 42 38 37 38 31 28 19 10 9 9 8 3
28 24 27 25 22 26 27 26 12 7 5 6 19 10 30 21 26 35 41 47 49 53 46 41 39 39 36 37 39 47 52 51 49 47 47 40 28 21 17 16 14 11 5 2
22 22 32 31 24 25 23 25 19 11 4 3 12 9 23 23 23 23 33 42 55 47 40 39 41 40 37 37 37 41 47 48 50 47 41 34 27 19 21 19 15 8 2 3
14 17 21 27 25 23 18 16 31 11 11 4 9 6 9 28 22 31 40 42 45 53 41 42 41 39 39 37 35 37 38 43 46 47 38 26 21 21 20 16 10 6 1 5
26 37 10 14 14 22 6 19 21 20 7 7 16 7 6 21 33 26 33 52 54 55 54 49 42 42 45 44 37 35 36 42 44 36 31 22 20 20 18 14 10 5 1 5
17 27 16 8 13 5 7 4 5 7 6 5 27 18 12 5 13 34 40 55 60 64 60 56 47 49 48 43 45 36 29 36 35 31 30 27 25 22 16 13 6 3 2 5
11 12 24 19 21 8 13 11 3 9 11 10 15 14 8 5 23 31 60 55 60 60 59 58 59 56 53 54 48 39 30 27 30 32 30 26 21 20 13 8 5 5 2 6
8 11 4 14 14 15 5 17 3 2 3 5 3 5 9 12 4 8 43 54 55 56 60 61 55 49 53 50 48 42 50 47 41 32 29 25 24 14 12 11 8 6 3 6
11 18 12 13 17 14 6 4 5 5 3 4 5 5 7 13 18 20 27 45 50 54 58 60 54 57 56 62 57 53 51 51 41 29 27 23 20 17 14 11 7 5 4 8
20 12 9 6 10 12 5 6 8 6 7 4 5 6 7 9 33 40 35 53 66 66 59 57 63 52 58 49 60 63 58 49 38 35 30 28 20 17 15 11 7 5 7 9
12 3 6 12 7 6 3 12 12 5 6 4 4 3 8 10 8 20 41 44 46 62 69 74 66 64 58 56 56 57 48 45 41 38 32 25 21 18 15 11 8 8 9 11
10 6 5 12 5 1 11 9 8 14 7 7 7 4 4 6 7 26 43 50 51 47 43 48 51 58 62 63 63 52 47 44 40 35 29 24 21 18 15 11 11 11 12 14
19 4 5 5 3 7 9 11 15 11 3 2 3 5 5 7 6 20 37 48 56 64 69 68 67 68 65 62 63 56 49 44 39 32 27 23 19 17 14 14 14 13 15 17
10 6 8 5 9 9 3 16 16 15 7 4 6 3 9 9 14 18 36 49 56 58 62 63 65 64 67 68 57 52 50 42 35 30 26 23 19 16 16 16 16 17 18 21
14 5 4 8 13 10 5 9 15 12 11 12 15 9 9 8 25 28 37 46 50 56 62 66 68 72 74 68 65 58 47 40 35 29 26 20 18 18 19 19 20 21 21 23
9 10 7 2 4 5 13 16 20 10 12 13 17 9 10 9 14 32 42 50 54 58 65 66 68 74 74 72 63 52 44 39 31 30 23 21 20 18 21 23 23 23 23 25
7 8 4 6 1 6 10 2 3 12 11 17 7 13 9 8 15 24 36 46 51 55 59 62 66 71 72 65 54 48 44 36 34 29 26 23 19 20 23 24 24 24 25 28
13 6 6 2 5 10 1 3 3 2 7 13 7 12 8 7 4 7 25 30 32 42 50 59 65 68 68 62 58 50 45 43 40 31 25 19 20 23 25 24 25 27 29 32
8 6 3 3 5 5 2 1 5 5 6 18 16 12 14 15 4 5 12 27 32 35 44 56 58 61 65 67 63 52 51 46 34 29 20 22 24 25 26 28 29 30 32 36
2 4 8 8 6 11 3 2 3 6 7 24 17 20 27 7 6 7 5 22 29 34 41 45 51 58 63 65 61 54 49 41 28 26 26 26 28 28 30 34 36 35 36 38
7 8 6 2 2 9 8 3 4 4 9 14 8 7 16 10 5 4 4 18 31 36 41 44 47 55 58 58 55 50 45 32 29 30 31 30 33 36 38 37 35 36 40 42
5 9 4 10 8 3 15 11 7 6 5 8 4 5 8 13 1 1 9 20 28 32 37 37 39 45 49 52 52 47 37 32 32 33 34 39 38 38 36 37 38 42 46 49
9 7 6 7 7 12 26 35 32 25 15 11 8 6 10 7 11 3 10 22 27 32 36 39 42 44 46 47 44 40 35 33 35 37 38 37 37 39 41 42 44 48 51 53
8 12 8 11 21 43 34 35 26 25 25 18 8 5 13 15 13 6 9 18 23 30 35 38 39 40 41 40 39 34 30 31 34 36 37 38 40 43 44 45 48 51 54 56
21 14 10 12 20 10 7 11 8 29 21 17 14 7 10 14 12 8 16 20 26 31 34 36 36 35 35 34 32 30 27 28 32 34 36 38 42 45 46 49 52 55 58 59
Wind_Direction_850mb
240 234 228 229 233 241 204 164 253 316 332 341 200 169 167 180 176 167 168 167 167 172 175 177 180 181 187 193 191 193 195 201 204 204 202 198 164 169 169 166 179 198 161 143
254 246 251 255 226 219 226 152 217 246 6 347 281 200 171 179 189 178 170 169 163 176 175 179 182 184 190 195 199 197 202 202 204 202 198 184 180 175 167 165 176 157 146 121
244 254 293 223 216 230 235 217 202 160 356 233 318 268 162 185 176 179 181 172 171 179 175 177 178 189 189 196 194 196 195 199 196 194 186 172 174 169 169 167 159 156 155 358
249 259 254 284 229 215 262 212 158 149 86 230 68 318 237 175 184 180 182 171 162 168 178 183 182 188 187 183 185 190 191 189 186 189 171 163 171 182 167 159 161 168 191 343
274 242 253 226 242 219 239 278 202 146 141 140 137 250 266 175 199 187 177 169 160 155 181 180 183 182 175 176 178 179 187 181 175 181 171 170 164 165 158 164 177 186 196 358
259 278 300 289 241 227 166 214 172 158 150 215 158 168 262 191 221 190 178 166 166 162 183 180 177 175 169 163 169 173 180 186 170 170 167 160 161 160 177 187 194 206 0 348
301 247 218 278 255 264 167 254 199 188 183 227 156 156 262 242 289 189 182 166 166 185 185 170 177 173 167 162 169 165 173 168 159 159 163 165 169 180 185 194 203 237 288 355
287 306 212 193 225 187 213 215 282 190 177 152 164 180 196 313 304 246 177 168 158 177 179 171 175 180 165 168 172 169 187 204 164 171 166 175 184 193 182 196 217 236 303 351
279 252 94 264 236 195 187 208 357 135 235 67 152 217 246 125 299 162 155 154 160 174 181 182 185 179 168 172 170 176 181 180 172 168 185 186 187 181 199 203 196 237 311 338
284 295 248 183 302 259 234 346 279 322 42 104 238 222 166 174 174 164 161 164 161 165 178 183 182 175 166 180 169 173 170 169 177 187 199 188 187 193 196 200 196 243 316 329
287 246 292 116 214 201 184 265 228 141 263 177 156 236 5 195 184 185 182 174 169 177 173 179 172 178 185 186 174 176 175 174 182 194 188 192 188 190 198 202 217 259 299 313
252 318 272 243 323 5 278 236 203 164 246 338 82 324 1 1 359 164 171 176 176 179 175 184 187 190 187 182 179 178 181 186 186 185 189 186 187 195 206 214 236 271 294 319
330 202 330 327 344 90 254 224 257 255 340 200 126 257 2 35 40 137 146 161 163 173 165 166 181 189 188 184 184 186 189 185 183 186 186 187 194 205 216 234 255 283 305 315
323 322 188 245 46 326 309 242 221 210 199 286 257 74 163 119 147 131 147 153 159 170 178 188 194 193 191 186 187 191 186 185 186 186 190 196 206 216 232 251 269 288 303 312
9 291 351 354 288 289 179 307 312 231 239 214 315 289 67 147 166 164 155 156 160 166 173 183 191 190 187 189 187 187 190 187 187 190 198 206 216 231 249 263 278 289 297 300
343 329 317 247 239 271 276 214 269 297 243 245 283 318 130 99 137 150 159 159 166 173 177 184 196 193 192 190 190 191 189 188 192 199 207 213 230 244 259 271 277 282 288 297
323 328 325 60 326 253 296 230 208 198 242 196 222 222 148 145 158 170 173 181 183 184 187 193 200 198 194 193 192 191 190 193 198 207 214 225 239 256 267 271 275 282 291 305
301 301 292 295 43 224 244 341 288 254 219 220 210 189 150 137 167 190 201 195 197 198 199 201 202 201 199 195 190 192 196 200 208 212 222 234 252 264 268 272 279 285 294 302
207 286 296 310 276 284 313 291 343 203 271 248 173 140 124 138 130 238 209 214 212 207 208 205 207 203 198 194 191 197 202 208 213 217 229 244 263 269 274 283 286 290 291 296
222 260 271 288 261 263 290 32 319 301 311 353 190 155 157 152 120 249 213 211 208 207 207 204 207 204 198 194 196 205 208 212 217 226 237 256 273 281 284 282 282 279 284 289
224 220 236 252 261 288 88 44 337 93 266 328 353 183 167 173 176 162 225 203 206 204 202 207 208 201 198 200 203 206 212 219 222 230 247 265 280 282 283 282 277 273 278 286
196 165 214 18 321 304 163 145 207 260 326 324 320 49 161 121 143 231 218 194 195 196 195 201 203 201 201 204 206 211 219 221 229 243 256 272 283 279 274 270 270 277 284 292
299 197 230 182 225 196 197 215 228 286 330 341 340 258 197 212 138 161 194 192 193 195 194 193 194 196 199 202 209 216 222 228 240 253 266 271 270 273 277 282 281 284 287 289
247 186 222 26 272 244 248 250 252 257 262 293 329 277 211 213 230 285 183 183 187 186 188 187 187 194 199 202 210 218 225 234 246 257 267 274 278 285 284 279 280 283 287 291
221 141 213 263 282 284 278 253 249 241 239 249 296 313 205 201 205 243 202 188 185 180 180 185 189 193 197 204 209 217 227 242 258 268 274 276 280 283 282 280 283 286 290 293
187 201 178 225 237 231 302 339 260 239 241 245 253 305 202 199 191 196 184 180 179 179 183 185 187 192 195 201 207 215 231 254 269 276 278 280 280 281 281 282 285 289 292 295